MSG-2

Last updated on Fri Feb 09 2018 00:19:21 GMT+0000 (Coordinated Universal Time)

1 28912U 05049B 18039.17329396 .00000047 00000-0 00000+0 0 9991 2 28912 2.6676 71.6600 0003079 264.4750 233.6858 1.00271338 44488

Satellite not in orbit

MSG-2